LEPA Airport Information

Runway Information
Runway 06L Length 10728 ft width 148 ft
Elevation 15 ft Threshold 0 ft Heading 59
Runway 24R Length 10728 ft Width 148 ft
Elevation 8 ft Threshold 230 ft Heading 239
Runway 06R Length 9842 ft width 148 ft
Elevation 24 ft Threshold 1345 ft Heading 59
Runway 24L Length 9842 ft Width 148 ft
Elevation 8 ft Threshold 0 ft Heading 239
Airport Frequencies
Type APP Name APP Frequency 118.95 MHZ
Type ATIS Name ATIS Frequency 119.25 MHZ
Type CLD Name CLNC DEL Frequency 121.6 MHZ
Type GND Name GND Frequency 121.7 MHZ
Type OPS Name OPS Frequency 130.25 MHZ
Type TWR Name TWR Frequency 118.3 MHZ
Airport Navaids
Airport Weather Information & NOTAM
ADDS - METARS form results

(2113 UTC 21 July 2018)
 
METAR text: LEPA 212100Z VRB02KT 9999 FEW018 25/19 Q1014 NOSIG
Conditions at: LEPA (PALMA DE MALLORC, ES) observed 2100 UTC 21 July 2018
Temperature: 25.0°C (77°F)
Dewpoint: 19.0°C (66°F) [RH = 69%]
Pressure (altimeter): 29.94 inches Hg (1014.0 mb)
Winds: variable direction winds at 2 MPH (2 knots; 1.0 m/s)
Visibility: 6 or more miles (10+ km)
Ceiling: at least 12,000 feet AGL
Clouds: few clouds at 1800 feet AGL
Weather: no significant weather observed at this time

METAR text: LEPA 212030Z 08004KT 9999 FEW018 26/19 Q1014 NOSIG
Conditions at: LEPA (PALMA DE MALLORC, ES) observed 2030 UTC 21 July 2018
Temperature: 26.0°C (79°F)
Dewpoint: 19.0°C (66°F) [RH = 65%]
Pressure (altimeter): 29.94 inches Hg (1014.0 mb)
Winds: from the E (80 degrees) at 5 MPH (4 knots; 2.1 m/s)
Visibility: 6 or more miles (10+ km)
Ceiling: at least 12,000 feet AGL
Clouds: few clouds at 1800 feet AGL
Weather: no significant weather observed at this time